HELLAS-SAT 4 & SGS-1

Last updated on Sun Apr 12 2026 00:02:55 GMT+0000 (Coordinated Universal Time)

1 44034U 19007A 26101.17266953 .00000154 00000+0 00000+0 0 9999 2 44034 0.0674 125.8138 0003772 10.7890 163.9673 1.00267074 26691
UTC large
Height (km)
Speed (km/s)
/
Latitude / Longitude
Inclination (degrees)
Orbital Period (minutes)
Azimuth
Elevation
Range (km)
Doppler Factor

Next 0 passes for location: London (51.5072 / 0.1276)

Sorry there are no passes over London.
HELLAS-SAT 4 & SGS-1